Kailua Kona, HI

11:48 AM HST on February 25, 2017 (GMT -1000)
Kona International At Keahole

Weather History for PHKO - March, 2014

Change the Weather History Date:

Monday, March 17, 2014

  Actual Average Record
Temperature  
Mean Temperature 78 °F -  
Max Temperature 87 °F 79 °F 87 °F (2014)
Min Temperature 69 °F 67 °F 65 °F (1993)
Cooling Degree Days 13    
Growing Degree Days 28 (Base 50)    
Moisture  
Dew Point 64 °F    
Average Humidity 63    
Maximum Humidity 81    
Minimum Humidity 43    
Precipitation  
Precipitation 0.00 in - - ()
Sea Level Pressure  
Sea Level Pressure 29.95 in    
Wind  
Wind Speed 7 mph (ESE)    
Max Wind Speed 18 mph    
Max Gust Speed 24 mph    
Visibility 10 miles    
Events      
Averages and records for this station are not official NWS values.
T = Trace of Precipitation, MM = Missing Value Source: NWS Daily Summary

Daily Weather History Graph

Daily Weather History Graph

Search for Another Location

Airport or City:

Trip Planner

Search our weather history database for the weather conditions in past years. The results will help you decide how hot, cold, wet, or windy it might be!

Date:

Astronomy

Mar. 17, 2014 Rise Set
Actual Time 6:30 AM HST 6:34 PM HST
Civil Twilight 6:08 AM HST 6:56 PM HST
Nautical Twilight 5:43 AM HST 7:21 PM HST
Astronomical Twilight 5:17 AM HST 7:47 PM HST
Moon 7:46 PM HST (3/17) 7:04 AM HST (3/17)
Length of Visible Light 12h 47m
Length of Day
12h 03m
Full, 99% of the Moon is Illuminated
Mar 17
Full
Mar 23
Last Quarter
Mar 30
New
Apr 6
First Quarter
Apr 14
Full

Hourly Weather History & Observations

Time (HST) Temp. Heat Index Dew Point Humidity Pressure Visibility Wind Dir Wind Speed Gust Speed Precip Events Conditions
12:03 AM 75.2 °F - 64.4 °F 69% 29.99 in 10.0 mi NE 5.8 mph - 0.00 in   Overcast
12:53 AM 73.9 °F - 66.9 °F 79% 29.98 in 10.0 mi East 3.5 mph - 0.00 in   Overcast
1:04 AM 73.4 °F - 64.4 °F 73% 29.97 in 10.0 mi NNE 4.6 mph - N/A   Overcast
1:31 AM 75.2 °F - 64.4 °F 69% 29.96 in 10.0 mi Calm Calm - N/A   Overcast
1:53 AM 75.0 °F - 64.0 °F 69% 29.96 in 10.0 mi Calm Calm - N/A   Overcast
2:53 AM 73.0 °F - 63.0 °F 71% 29.94 in 10.0 mi North 5.8 mph - N/A   Mostly Cloudy
3:53 AM 72.0 °F - 62.1 °F 71% 29.94 in 10.0 mi North 6.9 mph - N/A   Scattered Clouds
4:53 AM 71.1 °F - 64.0 °F 78% 29.94 in 10.0 mi ESE 6.9 mph - N/A   Partly Cloudy
5:53 AM 70.0 °F - 63.0 °F 78% 29.95 in 10.0 mi ENE 4.6 mph - N/A   Clear
6:53 AM 69.1 °F - 63.0 °F 81% 29.96 in 9.0 mi ENE 5.8 mph - N/A   Clear
7:53 AM 73.9 °F - 57.0 °F 55% 29.98 in 10.0 mi North 12.7 mph - N/A   Clear
8:53 AM 78.1 °F - 64.0 °F 62% 29.99 in 10.0 mi Calm Calm - N/A   Clear
9:53 AM 82.9 °F 83.2 °F 60.1 °F 46% 29.99 in 10.0 mi North 17.3 mph 24.2 mph N/A   Clear
10:53 AM 82.0 °F 83.4 °F 64.0 °F 54% 29.99 in 10.0 mi NW 13.8 mph - N/A   Clear
11:53 AM 84.0 °F 84.5 °F 62.1 °F 47% 29.96 in 10.0 mi NNW 18.4 mph 24.2 mph N/A   Clear
12:44 PM 87.8 °F 88.5 °F 62.6 °F 43% 29.93 in 10.0 mi SSE 16.1 mph - N/A   Clear
12:53 PM 87.1 °F 88.3 °F 64.0 °F 46% 29.94 in 10.0 mi SSE 15.0 mph - N/A   Scattered Clouds
1:53 PM 87.1 °F 88.3 °F 64.0 °F 46% 29.92 in 10.0 mi SSE 13.8 mph - N/A   Clear
2:53 PM 82.9 °F 84.4 °F 64.0 °F 53% 29.89 in 10.0 mi South 11.5 mph - N/A   Clear
3:53 PM 82.0 °F 83.1 °F 63.0 °F 52% 29.88 in 10.0 mi South 9.2 mph - N/A   Clear
4:53 PM 81.0 °F 82.5 °F 64.0 °F 56% 29.90 in 10.0 mi South 8.1 mph - N/A   Partly Cloudy
5:53 PM 80.1 °F 81.9 °F 64.9 °F 60% 29.91 in 10.0 mi South 10.4 mph - N/A   Clear
6:53 PM 79.0 °F - 64.9 °F 62% 29.93 in 10.0 mi SSE 6.9 mph - N/A   Mostly Cloudy
7:53 PM 78.1 °F - 66.0 °F 66% 29.95 in 10.0 mi SE 4.6 mph - N/A   Mostly Cloudy
8:53 PM 77.0 °F - 66.9 °F 71% 29.96 in 10.0 mi SE 6.9 mph - N/A   Partly Cloudy
9:53 PM 75.9 °F - 66.0 °F 71% 29.97 in 10.0 mi ESE 6.9 mph - N/A   Clear
10:53 PM 75.9 °F - 66.0 °F 71% 29.96 in 10.0 mi ESE 6.9 mph - N/A   Scattered Clouds
11:53 PM 75.9 °F - 64.0 °F 67% 29.97 in 10.0 mi East 5.8 mph - N/A   Overcast